Location: Bukit Lungun
(2.6833°N, 113.9667°E)
Time: 13:56:32
(UTC+00:00)

Nadezhda 1 Rocket - Pass Details

Date: 02 March 2021
Orbit: 942 x 1005 km, 83.0° (Epoch: 14 April)

Event Time Altitude Azimuth Distance (km) Brightness Sun altitude
Rises 22:02:26 0° 185° (S) 3,604 7.0 -8.7°
Reaches altitude 10° 22:04:55 10° 186° (S) 2,656 6.3 -8.1°
Maximum altitude 22:10:59 82° 272° (W) 953 3.9 -6.6°
Drops below altitude 10° 22:17:03 10° 1° (N) 2,659 6.2 -5.1°
Sets 22:19:32 0° 2° (N) 3,608 6.9 -4.4°
